Location: Glencliff
(36.1226°N, 86.7183°W)
Time: 17:02:06
(UTC+00:00)

Meteor 2-4 Rocket - Pass Details

Date: 25 August 2019
Orbit: 798 x 909 km, 81.2° (Epoch: 17 September)

Event Time Altitude Azimuth Distance (km) Brightness Sun altitude
Rises 02:02:45 0° 350° (N) 3,313 7.4 -19.0°
Reaches altitude 10° 02:05:08 10° 350° (N) 2,377 6.6 -19.4°
Maximum altitude 02:10:29 85° 264° (W) 808 3.6 -20.3°
Enters shadow 02:13:43 25° 176° (S) 1,574 4.8 -20.9°
